This is the latest recevied weather packets stored in our database for station/object N9BID. If no packets are shown the sender has not sent any weather packets the latest 10 day(s).
| Time | Temp. | Humidity | Pressure | Rain* | Wind** | Luminosity | Snow |
|---|---|---|---|---|---|---|---|
| 1778024334 | 7.22° C | 55% | 1001.9 hPa | 0 mm | - | 57 W/m² | - |
| 1778024033 | 7.22° C | 55% | 1001.7 hPa | 0 mm | - | 73 W/m² | - |
| 1778023730 | 7.22° C | 57% | 1001.7 hPa | 0 mm | - | 75 W/m² | - |
| 1778023428 | 7.22° C | 55% | 1001.9 hPa | 0 mm | - | 66 W/m² | - |
| 1778023124 | 7.22° C | 54% | 1001.7 hPa | 0 mm | - | 83 W/m² | - |
| 1778022822 | 7.22° C | 54% | 1001.8 hPa | 0 mm | - | 98 W/m² | - |
| 1778022520 | 7.22° C | 54% | 1002 hPa | 0 mm | - | 103 W/m² | - |
| 1778022217 | 7.22° C | 58% | 1001.9 hPa | 0 mm | - | 111 W/m² | - |
| 1778021913 | 7.22° C | 55% | 1001.8 hPa | 0 mm | - | 96 W/m² | - |
| 1778021610 | 7.22° C | 53% | 1001.9 hPa | 0 mm | - | 107 W/m² | - |
| 1778021305 | 7.78° C | 55% | 1001.9 hPa | 0 mm | - | 149 W/m² | - |
| 1778021003 | 7.78° C | 56% | 1001.9 hPa | 0 mm | - | 140 W/m² | - |
| 1778020700 | 7.22° C | 56% | 1001.8 hPa | 0 mm | - | 117 W/m² | - |
| 1778020398 | 7.22° C | 55% | 1001.8 hPa | 0 mm | - | 120 W/m² | - |
| 1778020093 | 7.22° C | 55% | 1002 hPa | 0 mm | - | 151 W/m² | - |
| 1778019789 | 7.22° C | 54% | 1001.9 hPa | 0 mm | - | 89 W/m² | - |
| 1778019486 | 7.22° C | 54% | 1001.8 hPa | 0 mm | - | 82 W/m² | - |
| 1778019183 | 7.78° C | 55% | 1001.8 hPa | 0 mm | - | 121 W/m² | - |
| 1778018880 | 7.78° C | 56% | 1001.9 hPa | 0 mm | - | 144 W/m² | - |
| 1778018577 | 7.22° C | 52% | 1002 hPa | 0 mm | - | 152 W/m² | - |
| 1778018275 | 7.22° C | 53% | 1001.8 hPa | 0 mm | - | 178 W/m² | - |
| 1778017973 | 7.78° C | 53% | 1001.9 hPa | 0 mm | - | 169 W/m² | - |
| 1778017671 | 7.78° C | 53% | 1001.9 hPa | 0 mm | - | 220 W/m² | - |
| 1778017368 | 7.22° C | 54% | 1001.9 hPa | 0 mm | - | 164 W/m² | - |
| 1778017065 | 7.22° C | 55% | 1001.8 hPa | 0 mm | - | 107 W/m² | - |
* Rain latest hour (hover to see other rain measurements)
** Current wind speed in m/s (hover to see current wind gust speed)